Location: Arrodets-la-Barthe
(43.0306°N, 0.2829°E)
Time: 11:22:17
(UTC+00:00)

Iridium 4 Rocket - Pass Details

Date: 07 June 2022
Orbit: 585 x 902 km, 86.9° (Epoch: 01 July)

Event Time Altitude Azimuth Distance (km) Brightness Sun altitude
Rises 23:24:42 0° 335° (NNW) 3,222 8.0 -23.7°
Reaches altitude 10° 23:28:26 10° 307° (NW) 2,366 6.6 -23.8°
Maximum altitude 23:30:32 12° 284° (WNW) 2,234 6.1 -23.8°
Drops below altitude 10° 23:32:41 10° 260° (W) 2,437 6.1 -23.9°
Enters shadow 23:34:02 - 249° (WSW) 2,707 6.2 -23.9°
